Regional Weather Roundup
Issued by NWS Newport/Morehead, NC

Current Version | Previous Version | Text Only | Print | Product List | Glossary Off
Versions: 1 2 3 4 5 6 7 8 9 10 11 12 13 14 15 16 17 18 19 20 21 22 23 24 25 26 27 28 29 30 31 32 33 34 35 36 37 38 39 40 41 42 43 44 45 46 47 48 49 50
000 ASUS42 KMHX 290227 RWRMHX WEATHER ROUNDUP FOR EASTERN NORTH CAROLINA NATIONAL WEATHER SERVICE NEWPORT/MOREHEAD CITY NC 1000 PM EDT SAT MAR 28 2015 NOTE: "FAIR" INDICATES FEW OR NO CLOUDS BELOW 12,000 FEET WITH NO SIGNIFICANT WEATHER AND/OR OBSTRUCTIONS TO VISIBILITY NCZ015>017-031-032-045>047-102-103-290300- NORTH COAST CITY SKY/WX TMP DP RH WIND PRES REMARKS EDENTON CLEAR 32 26 80 CALM 30.20R ELIZABETH CITY PTCLDY 32 22 66 NW7 30.19R KITTY HAWK CLEAR 38 19 47 NW5 30.17R MANTEO CLEAR 38 18 44 N13 30.19R $$ NCZ045>047-081-094-103-104-290300- CENTRAL COAST CITY SKY/WX TMP DP RH WIND PRES REMARKS FRISCO CLEAR 39 23 52 N9 30.19R SWANQUARTER N/A 34 N/A N/A N1 30.15S $$ NCZ095-097-098-100-101-290300- SOUTHERN COAST CITY SKY/WX TMP DP RH WIND PRES REMARKS BEAUFORT CLEAR 37 24 59 N7 30.19R CEDAR ISLAND N/A 43 N/A N/A N18 30.24R JACKSONVILLE CLEAR 40 23 50 N6 30.19R PINEY ISLAND CLEAR N/A N/A N/A N9 30.19R WILMINGTON CLEAR 42 25 50 N8 30.18R $$ NCZ011>013-027>030-043-044-078>080-089-090>093-098-290300- COASTAL PLAIN CITY SKY/WX TMP DP RH WIND PRES REMARKS AHOSKIE CLEAR 33 17 51 N7 30.23R CLINTON CLEAR 36 30 80 N6 30.21R ELIZABETHTOWN CLEAR 38 27 62 CALM 30.19R GOLDSBORO CLEAR 40 20 45 N10 30.19R GREENVILLE CLEAR 36 21 55 CALM 30.22R HAVELOCK CLEAR 42 17 36 NW12 30.19R KENANSVILLE CLEAR 37 25 61 NW5 30.22R KINSTON FAIR 37 21 52 N6 30.22R NEW BERN CLEAR 39 21 48 N5 30.20R RICHLANDS CLEAR 34 25 69 CALM 30.20R ROCKY MOUNT NOT AVBL WASHINGTON CLEAR 35 21 57 CALM 30.21R WHITEVILLE CLEAR 40 28 63 CALM 30.19R $$ AMZ130-135-150-152-154-156-158-170-250-252-270-ANZ085-086-088-633-658-670-290300- MARINE OBSERVATIONS STATION/POSITION TIME TEMP WIND PRES WAVE SWELL AIR SEA DIR/SP/G HT/PER HT/PER (UTC) (F) (DEG/KT/KT) (MB) (FT/S) (FT/S) CHESAPEAKE LIGHT 0200 35 330/ 21/ 24 1022.7 64 E VA BEACH 0150 38 57 340/ 21/ 27 1020.8 6/ 6 3/ 9 DUCK 0200 39 42 320/ 12/ 15 1021.1 2 E DUCK 0211 41 N/A 4/ 6 2/11 10 NE DUCK NOT AVBL OREGON INLET 0200 37 46 340/ 7/ 12 1022.0 HATTERAS CG 0200 42 54 340/ 17/ 19 1022.5 CAPE LOOKOUT 0200 43 350/ 13/ 16 1021.9 BEAUFORT LAB 0200 43 55 10/ 8/ 12 1021.2 27 SE WRIGHTSVLE 0200 48 65 10/ 17/ 19 1023.1 5 SE WRIGHTSVLE 0200 48 56 10/ 19/ 21 1021.9 225 S CAPE HAT 0150 60 68 300/ 19/ 25 1019.0 10/ 9 3/12 41 SE CHARLESTON 0150 56 68 330/ 16/ 21 1021.3 4/ 5 2/ 9 $$

USA.gov is the U.S. government's official web portal to all federal, state and local government web resources and services.